{"data":{"norad_id":38749,"intl_designator":"2012-045A","name":"INTELSAT 21 (IS-21)","alt_names":[],"object_type":"PAYLOAD","status":"ACTIVE","operator":null,"country":"ITSO","launch_date":"2012-08-19","launch_site_code":"SEAL","launch_vehicle":null,"mission":null,"orbit_class":"UNKNOWN","rcs_meters":52.4,"size_class":null,"mass_kg":null,"dimensions":null,"purposes":["comms"],"wikipedia_slug":null,"has_3d_model":false,"image_url":null,"decayed_at":null,"tle_current":{"epoch":"2026-05-25T04:30:50.770368Z","epoch_age_seconds":62292,"freshness":"FRESH","line1":"1 38749U 12045A   26145.18808762 -.00000287  00000+0  00000+0 0  9997","line2":"2 38749   0.0170 336.2008 0001983  95.2727 181.0165  1.00271954 50293","mean_motion":1.00271954,"eccentricity":0.0001983,"inclination_deg":0.017,"raan_deg":336.2008,"arg_perigee_deg":95.2727,"mean_anomaly_deg":181.0165,"bstar":0,"rev_number":5029,"period_min":1436.094483608,"perigee_km":35778.186327469,"apogee_km":35794.908841375,"semimajor_km":42164.684584422,"source":"CELESTRAK","updated_at":"2026-05-25T13:38:14.332096Z"}}}